SCP
0 0 0 0 0 0 0 0 0 0 0 0 0 0 0 0 0 0 0 0 0 0 0 0 0 0 0 0 0 0 0 0 0 0 0 0 0 0 0 0 0 0 0 0 0 0 0 0 0 0 0 0 0 0
0 0 0 0 0 0 0 0 0 0 0 0 0 0 0 0 0 0 0 0 0 0 0 0 0 0 0 0 0 0 0 0 0 0 0 0 0 0 0 0 0 0 0 0 0 0 0 0 0 0 0 0 0 0
0 0 0 0 0 0 0 0 0 0 0 0 0 0 0 0 0 0 0 0 0 0 0 0 0 0 0 0 0 0 -0 -0 0 0 0 0 0 0 0 0 0 0 0 0 0 0 0 0 0 0 0 0 0 0
0 0 0 0 0 0 0 0 0 0 0 0 0 0 0 0 0 0 0 0 0 0 0 0 0 0 0 0 0 0 0 0 0 0 0 0 0 0 0 0 -0 -0 -0 0 0 0 0 0 0 0 0 0 0 0
0 0 0 0 0 0 0 0 0 0 0 0 0 0 0 0 0 0 0 0 0 0 0 0 0 0 0 0 0 0 0 0 0 0 0 0 0 0 0 0 0 0 0 0 0 0 0 0 0 0 0 0 0 0
0 0 0 0 0 0 0 0 0 0 0 0 0 0 0 0 0 0 0 0 0 0 0 0 0 0 0 0 0 0 0 0 0 0 0 0 0 0 0 0 0 0 0 0 0 0 0 0 0 0 0 0 0 0
0 0 0 0 0 0 0 0 0 0 0 0 0 0 0 0 0 0 0 0 0 0 0 0 0 0 0 0 0 0 0 0 0 0 0 0 0 0 0 0 0 0 0 0 0 0 0 0 0 0 0 0 0 0
0 0 0 0 0 0 0 0 0 0 0 0 0 0 0 0 0 0 0 0 0 0 0 0 0 0 0 0 0 0 0 0 0 0 0 0 0 0 0 0 0 0 0 0 0 0 0 0 0 0 0 0 0 0
0 0 0 0 0 0 0 0 0 0 0 0 0 0 0 0 0 0 0 0 0 0 0 0 0 0 0 0 0 0 0 0 0 0 0 0 0 0 0 0 0 0 0 0 0 0 0 0 0 0 0 0 0 0
0 0 0 0 0 0 0 0 0 0 0 0 0 0 0 0 0 0 0 0 0 0 0 0 0 0 0 0 0 0 0 0 0 0 0 0 0 0 0 0 0 0 0 0 0 0 0 0 0 0 0 0 0 0
0 0 0 0 0 0 0 0 0 0 0 0 0 0 0 0 0 0 0 0 0 0 0 0 0 0 0 0 0 0 0 0 0 0 0 0 0 0 0 0 0 0 0 0 0 0 0 0 0 0 0 0 0 0
0 0 0 0 0 0 0 0 0 0 0 0 0 0 0 0 0 0 0 0 0 0 0 0 0 0 0 0 0 0 0 0 0 0 0 0 0 0 0 0 0 0 0 0 0 0 0 0 0 0 0 0 0 0
0 0 0 0 0 0 0 0 0 0 0 0 -0 0 0 0 0 0 0 0 0 0 0 0 0 0 0 0 0 0 -0 0 0 0 0 0 0 0 0 0 0 0 0 0 0 0 0 0 0 0 0 0 0 0
0 0 0 0 0 0 0 0 0 0 0 0 -0 0 0 0 0 0 0 0 0 0 0 0 0 0 0 0 0 0 0 0 0 0 0 0 0 0 0 0 0 0 0 0 0 0 0 0 0 0 0 0 0 0
-0 0 0 0 0 0 0 0 0 0 0 0 0 0 0 0 0 0 0 0 0 0 0 0 0 0 0 0 0 0 0 0 0 0 0 0 0 0 0 0 0 0 0 0 0 0 0 0 0 0 0 0 0 0
-0 0 0 0 0 0 -0 0 0 0 0 0 0 0 0 0 0 0 0 0 0 0 0 0 0 0 0 0 0 0 0 0 0 0 0 0 0 0 0 0 0 0 0 0 0 0 0 0 0 0 0 0 0 0
-0 0 0 0 0 0 0 0 0 0 0 0 0 0 0 0 0 0 0 0 0 0 0 0 0 0 0 0 0 0 0 0 0 0 0 0 0 0 0 0 0 0 0 0 0 0 0 0 0 0 0 0 0 0
0 0 0 0 0 -0 -0 0 0 0 0 0 0 0 0 0 0 0 0 0 0 0 0 0 0 0 0 0 0 0 0 0 0 0 0 0 0 0 0 0 0 0 0 0 0 0 0 0 0 0 0 0 0 0
0 0 0 0 0 0 0 0 0 0 0 0 0 0 0 0 0 0 0 0 0 0 0 0 0 0 0 0 0 0 0 0 0 0 0 0 0 0 0 0 0 0 0 0 0 0 0 0 0 0 0 0 0 0
-0 0 0 -0 0 0 0 0 0 0 0 0 0 0 0 0 0 0 0 0 0 0 0 0 0 0 0 0 0 0 0 0 0 0 0 0 0 0 0 0 0 0 0 0 0 0 0 0 0 0 0 0 0 0
0 0 0 0 0 0 0 0 0 0 0 0 0 0 0 0 0 0 0 0 0 0 0 0 0 0 0 0 0 0 0 0 0 0 0 0 0 0 0 0 0 0 0 0 0 0 0 0 0 0 0 0 0 0
0 0 0 0 0 0 0 0 0 0 0 0 0 0 0 0 0 0 0 0 0 0 0 0 0 0 0 0 0 0 0 0 0 0 0 0 0 0 0 0 0 0 0 0 0 0 0 0 0 0 0 0 0 0
0 0 0 0 0 0 0 0 0 0 0 0 0 0 0 0 0 0 0 0 0 0 0 0 0 0 0 0 0 0 0 0 0 0 0 0 0 0 0 0 0 0 0 0 0 0 0 0 0 0 0 0 0 0
0 0 0 0 0 0 0 0 0 0 0 0 0 0 0 0 0 0 0 0 0 0 0 0 0 0 0 0 0 0 0 0 0 0 0 0 0 0 0 0 0 0 0 0 0 0 0 0 0 0 0 0 0 0
0 0 0 0 0 0 0 0 0 0 0 0 0 0 0 0 0 0 0 0 0 0 0 0 0 0 0 0 0 0 0 0 0 0 0 0 0 0 0 0 0 0 0 0 0 0 0 0 0 0 0 0 0 0
-0 0 0 0 0 0 0 0 0 0 0 0 0 0 0 0 0 0 0 0 0 0 0 0 0 0 0 0 0 0 0 0 0 0 0 0 0 0 0 0 0 0 0 0 0 0 0 0 0 0 0 0 0 0
-0 0 0 0 0 0 0 0 0 0 0 0 0 0 0 0 0 0 0 0 0 0 0 0 0 0 0 0 0 0 0 0 0 0 0 0 0 0 0 0 0 0 0 0 0 0 0 0 0 0 0 0 0 0
-0 -0 -0 -0 0 0 0 0 0 0 0 0 0 0 0 0 0 0 0 0 0 0 0 0 0 0 0 0 0 0 0 0 0 0 0 0 0 0 0 0 0 0 0 0 0 0 0 0 0 0 0 0 0 0
-0 -0 0 -0 0 0 0 0 0 0 0 0 0 0 0 0 0 0 0 0 0 0 0 0 0 0 0 0 0 0 0 0 0 0 0 0 0 0 0 0 0 0 0 0 0 0 0 0 0 0 0 0 0 0
0 0 0 0 0 0 0 0 0 0 0 0 0 0 0 0 0 0 0 0 0 0 0 0 0 0 0 0 0 0 0 0 0 0 0 0 0 0 0 0 0 0 0 0 0 0 0 0 0 0 0 0 0 0
0 0 0 0 0 0 0 0 0 0 0 0 0 0 0 0 0 0 0 0 0 0 0 0 0 0 0 0 0 0 0 0 0 0 0 0 0 0 0 0 0 0 0 0 0 0 0 0 0 0 0 0 0 0
0 0 0 0 0 0 0 0 0 0 0 0 0 0 0 0 0 0 0 0 0 0 0 0 0 0 0 0 0 0 0 0 0 0 0 0 0 0 0 0 0 0 0 0 0 0 0 0 0 0 0 0 0 0
0 0 0 0 0 0 0 0 0 0 0 0 0 0 0 0 0 0 0 0 0 0 0 0 0 0 0 0 0 0 0 0 0 0 -0 0 -0 -0 0 0 0 0 0 0 0 0 0 0 0 0 0 0 0 0
Wind_Speed_500mb
71 66 66 62 60 64 64 60 59 56 56 52 54 54 58 54 51 46 51 50 47 13 22 28 29 30 27 13 15 5 6 9 7 15 10 7 7 9 10 8 14 22 16 12 13 16 22 20 9 24 12 6 4 6
67 61 63 61 63 65 64 60 56 56 56 55 53 57 58 58 55 50 54 51 45 42 24 20 34 59 64 55 38 29 17 8 22 8 10 6 7 5 6 2 3 5 7 6 12 9 3 49 5 41 10 8 14 19
65 61 58 58 59 60 58 57 55 54 51 52 54 58 53 59 58 56 58 53 43 37 41 48 49 61 56 54 55 27 36 37 33 34 7 6 11 7 16 22 10 6 8 7 4 8 12 18 41 29 30 35 22 20
66 56 55 51 47 44 49 55 53 54 51 51 52 59 57 59 59 57 61 58 51 20 8 33 46 37 35 56 69 71 81 58 46 30 17 11 10 6 6 8 15 13 18 11 8 12 20 42 49 47 40 31 31 32
62 54 54 50 49 42 44 49 52 49 50 50 54 59 55 55 58 57 61 60 57 53 6 10 23 41 41 47 51 57 66 75 55 27 15 8 12 6 2 4 7 11 13 14 17 23 12 17 30 49 47 59 47 36
49 46 45 44 43 49 50 48 48 47 49 44 43 42 50 51 50 53 39 63 60 56 18 8 27 48 66 64 65 66 69 76 56 42 20 15 9 15 7 7 12 33 36 40 10 11 26 30 21 20 47 56 50 44
39 42 44 44 45 48 52 50 48 48 46 44 41 40 46 52 53 54 10 11 27 64 23 5 8 30 55 55 52 59 61 36 43 54 38 32 11 15 4 11 13 20 40 53 46 33 21 42 23 25 32 48 45 41
36 37 37 34 32 36 44 43 46 49 49 42 40 41 42 45 47 59 63 17 19 50 21 6 8 3 29 24 18 36 26 32 28 26 20 28 16 14 13 15 55 49 43 34 38 38 34 26 31 36 24 27 37 44
31 31 31 34 34 38 39 37 36 36 37 37 37 37 38 47 54 62 55 57 53 31 5 6 7 7 19 21 16 18 24 9 15 9 8 19 8 10 16 36 49 53 42 50 48 50 47 41 29 26 31 31 34 38
31 24 26 31 33 34 35 31 27 29 31 30 28 21 13 26 46 30 29 21 26 31 29 7 18 7 16 2 3 3 13 8 9 6 11 7 8 14 26 25 18 28 37 27 29 36 43 44 41 37 37 36 36 37
22 28 21 18 32 33 32 26 21 17 17 29 19 15 13 32 38 27 15 15 12 7 16 23 41 7 21 5 6 10 5 5 7 8 10 6 5 7 12 17 17 20 28 28 31 24 26 36 32 38 39 36 35 38
38 32 26 21 20 21 19 19 21 15 11 16 9 14 20 17 14 9 8 2 9 14 9 9 23 51 22 20 7 9 5 2 10 13 7 7 3 12 2 13 16 16 18 21 23 26 26 24 26 34 36 36 37 41
43 37 32 30 26 18 10 13 15 17 9 6 5 7 12 6 6 10 16 7 1 7 9 1 7 30 20 24 6 6 12 9 4 3 8 4 8 20 21 13 14 15 14 14 17 16 15 16 21 29 36 34 36 36
42 35 30 25 22 18 14 3 7 16 10 9 9 9 9 5 3 3 5 3 7 11 26 11 6 7 14 9 7 8 7 7 5 4 8 6 22 28 25 18 13 11 13 15 13 12 13 16 16 18 22 28 31 31
32 25 20 17 15 17 16 13 10 18 10 6 4 8 2 5 20 11 9 7 16 28 17 9 12 14 5 7 8 5 8 9 10 8 5 21 33 30 25 18 13 9 9 9 7 10 11 13 15 16 18 20 21 21
25 19 17 9 13 21 23 10 11 16 7 7 18 5 16 6 6 15 27 14 31 34 14 10 7 7 9 4 6 1 6 8 4 4 19 27 27 26 24 18 13 8 3 2 6 9 11 13 13 14 16 17 18 19
15 12 8 3 12 20 15 9 10 9 10 10 7 20 11 18 11 8 17 20 35 18 4 4 7 6 6 5 6 8 4 5 19 25 19 19 19 19 17 14 10 9 12 14 15 18 21 24 24 24 25 27 26 26
15 11 2 4 9 9 7 7 10 12 12 17 9 9 28 23 9 17 25 31 21 10 11 6 8 15 8 6 4 4 10 21 18 26 22 21 18 18 17 15 15 18 22 24 27 30 30 29 30 34 33 32 30 30
11 11 2 2 1 5 7 9 10 9 11 13 21 17 18 17 32 34 27 11 24 22 13 11 12 7 5 5 4 13 21 19 18 18 18 18 18 19 16 18 21 24 28 32 34 37 36 36 38 35 33 27 29 30
20 11 8 4 10 8 10 11 10 13 5 8 12 12 10 12 18 25 42 38 30 15 15 10 5 7 7 12 14 17 14 14 10 7 14 17 16 15 22 23 24 27 32 34 35 35 35 37 35 31 27 25 22 25
6 9 3 11 17 18 14 9 12 10 13 13 12 8 10 16 22 24 27 25 24 15 5 13 20 18 11 10 9 7 5 5 3 3 4 12 15 20 24 25 24 28 34 35 35 34 32 34 32 28 22 21 21 19
7 13 15 14 12 11 14 16 10 8 10 12 9 10 12 7 11 20 14 29 13 12 11 17 20 18 12 10 10 7 5 5 9 13 14 17 23 27 29 30 29 35 35 35 33 33 31 28 26 23 19 19 17 15
17 11 15 16 11 14 8 12 10 12 7 5 7 8 6 7 10 11 12 13 10 19 15 13 9 7 9 11 10 11 13 13 19 22 24 26 27 28 27 27 27 29 32 33 29 26 26 23 21 18 17 15 13 12
14 15 19 16 26 7 9 15 13 11 9 7 6 6 6 9 8 12 7 7 16 18 18 16 9 14 20 23 26 24 22 23 26 28 26 25 29 29 25 26 25 26 28 25 22 21 19 18 17 14 14 13 14 15
13 25 18 15 22 13 13 9 11 8 7 8 6 6 5 9 5 6 4 4 16 21 21 21 23 23 27 29 25 24 21 23 26 31 30 26 25 23 22 21 20 21 20 16 16 16 15 14 13 14 14 15 16 18
17 21 13 11 13 9 8 7 9 9 7 6 7 9 6 5 7 4 1 4 8 13 15 18 18 18 22 23 23 23 23 21 18 19 22 18 15 13 13 12 13 14 12 12 12 11 12 14 17 19 21 25 29 32
13 8 13 19 9 7 8 10 10 8 9 9 6 9 4 8 5 1 2 5 5 8 9 11 11 12 14 12 12 12 13 12 10 11 10 9 8 9 10 10 11 12 14 15 16 19 21 23 26 27 28 28 33 38
13 18 10 21 15 20 6 7 8 9 6 13 5 10 5 5 3 3 3 7 11 13 11 9 8 8 8 7 6 6 3 1 3 5 7 10 12 14 13 16 17 18 19 21 22 23 26 28 31 34 34 35 38 40
13 18 7 11 9 13 14 7 7 7 11 5 2 3 3 3 8 11 13 9 8 12 12 10 7 6 7 7 7 6 5 6 8 9 11 13 14 14 18 22 23 24 24 24 27 30 31 34 37 44 47 49 50 52
21 25 8 11 8 10 14 12 15 20 18 14 11 14 12 13 11 8 6 4 5 6 6 5 7 9 9 8 8 9 10 11 12 15 17 17 18 20 22 24 26 28 31 31 31 31 33 38 40 41 46 50 52 54
13 16 12 16 8 7 12 12 15 20 22 23 24 21 12 9 15 19 11 6 5 6 6 6 7 9 10 10 12 12 9 9 13 17 19 21 23 24 26 26 28 31 32 34 36 38 41 42 43 45 44 45 43 46
16 14 5 5 1 8 11 8 8 7 9 8 11 10 6 5 3 4 10 11 6 5 7 7 9 10 11 10 11 12 12 15 18 21 23 24 24 26 28 29 31 34 36 37 37 38 40 42 44 45 47 48 48 49
7 10 10 5 5 7 16 13 12 6 8 7 10 11 8 4 1 6 11 8 10 8 8 11 12 14 16 16 18 18 19 21 23 25 28 29 30 30 30 28 30 32 34 36 36 38 40 43 47 49 51 55 57 58
Wind_Direction_500mb
245 247 247 245 248 248 247 243 238 237 239 242 245 241 235 233 230 231 237 239 241 239 247 240 234 240 244 258 239 318 189 208 187 226 223 220 270 224 178 177 177 183 180 205 215 231 236 156 93 170 206 145 147 199
243 243 243 243 246 245 243 242 237 237 237 238 242 246 238 232 229 226 236 239 244 243 253 249 264 248 249 260 250 248 267 287 221 202 211 190 254 199 336 34 129 244 205 204 208 215 281 186 155 207 195 222 262 234
244 239 238 245 245 239 236 235 233 233 237 240 240 244 242 232 228 224 230 233 234 243 259 258 247 250 247 244 253 236 253 254 258 262 250 225 230 175 251 250 194 224 202 211 45 315 257 224 228 242 250 264 260 221
239 232 235 238 240 240 238 235 231 232 236 240 243 244 242 231 228 223 225 229 228 229 242 260 258 246 250 246 250 245 252 247 254 281 246 236 235 214 228 261 227 204 149 179 260 265 292 272 252 251 237 224 220 209
233 226 232 233 233 238 244 239 234 230 237 242 239 241 236 231 227 225 227 230 232 215 237 244 257 239 241 251 252 250 245 242 246 253 256 260 178 167 95 34 271 190 182 198 240 204 191 263 267 239 218 226 222 215
222 225 229 230 233 240 240 234 227 232 239 236 236 230 227 226 222 226 234 228 226 230 241 248 270 265 265 266 254 254 246 237 234 238 243 226 248 175 165 220 229 223 227 230 222 234 229 264 266 244 226 228 225 223
217 226 226 227 232 234 232 225 222 230 236 228 232 233 227 223 220 218 201 216 214 221 220 259 273 243 242 244 241 240 239 228 228 234 232 240 226 189 202 232 247 241 235 242 250 245 238 234 237 239 226 226 226 225
222 220 220 223 230 226 223 216 224 229 230 225 230 231 229 224 225 230 223 212 194 187 200 221 260 276 211 206 220 212 206 216 226 235 214 214 208 190 239 238 261 247 244 239 240 231 241 246 242 237 236 221 217 219
213 211 220 228 226 227 216 218 221 218 219 219 222 224 228 224 224 227 229 224 228 219 246 200 166 252 184 217 215 205 201 199 214 220 219 171 160 198 209 227 234 225 219 237 248 230 233 239 245 241 231 230 226 221
200 217 233 213 202 195 199 193 191 204 207 216 219 209 215 215 224 210 211 213 209 211 213 215 198 218 170 157 257 236 216 212 207 222 138 210 231 232 215 219 215 206 215 218 212 221 227 234 235 236 238 236 232 221
173 177 159 163 187 147 133 149 167 181 191 192 191 201 205 175 166 182 192 180 187 203 214 222 210 189 211 141 198 228 234 211 207 217 189 202 231 152 191 211 221 221 222 224 223 228 230 234 236 225 216 209 202 197
136 126 121 132 128 119 144 181 208 201 183 174 156 187 201 178 176 174 191 218 207 197 191 176 201 198 192 191 176 191 273 226 237 147 148 202 211 15 272 219 231 242 238 222 218 220 222 223 214 207 205 200 192 188
123 122 117 108 104 101 120 175 194 215 181 151 175 244 181 220 204 198 176 261 229 338 11 236 180 164 163 191 213 182 196 216 92 223 195 185 32 350 344 306 261 255 262 249 232 212 205 210 209 208 203 197 195 192
119 118 110 99 87 69 49 43 219 213 179 185 194 245 193 191 234 133 150 205 15 351 334 309 202 161 179 183 202 214 194 108 193 250 245 2 358 337 340 332 309 271 260 243 226 209 192 191 184 179 181 191 196 202
129 123 108 86 63 28 356 312 290 177 180 214 196 224 120 91 62 53 33 126 359 339 331 286 238 178 179 211 198 185 184 200 190 216 356 344 335 336 330 345 337 327 291 279 240 216 204 202 189 190 191 190 191 193
142 135 91 76 30 5 350 329 158 153 129 64 35 22 359 79 24 24 12 7 350 339 313 250 270 209 198 224 160 76 210 207 61 327 330 336 341 344 349 357 0 1 330 194 181 175 175 181 179 181 180 181 182 183
144 123 114 14 358 353 358 129 133 73 67 57 44 39 56 64 58 40 8 346 346 329 6 325 298 34 333 84 66 11 40 345 321 336 344 348 354 1 21 30 50 78 90 100 115 123 132 132 135 136 139 132 136 137
131 134 200 316 341 355 88 70 76 69 69 54 80 47 64 60 51 23 9 8 8 16 20 54 17 38 42 51 54 350 353 338 360 7 4 10 22 32 42 56 78 88 97 103 107 109 111 115 118 111 113 112 116 114
154 175 82 306 277 120 83 54 46 88 75 94 98 73 76 78 48 40 37 59 58 67 82 46 53 50 43 15 352 329 341 351 343 3 29 38 44 62 81 84 91 102 105 103 106 105 104 106 103 101 99 105 107 102
128 86 89 15 157 104 82 51 59 83 86 96 82 64 69 65 36 31 41 54 63 53 46 43 32 344 323 308 314 310 322 340 346 9 44 51 64 84 86 95 95 99 100 99 99 100 102 101 98 95 95 93 95 94
292 356 51 130 82 67 79 57 65 75 108 83 106 64 73 41 33 25 25 29 57 35 54 30 5 358 343 334 349 350 13 39 57 106 96 76 81 92 94 94 99 101 98 97 95 93 91 87 88 87 85 86 81 80
130 124 103 78 73 70 71 46 73 81 76 101 67 57 52 39 22 18 29 46 60 26 4 351 5 10 17 44 49 53 62 101 113 114 112 111 104 99 97 97 100 94 93 88 88 86 85 80 80 79 76 72 66 61
107 88 59 41 80 51 18 27 62 32 65 46 53 43 36 46 31 23 71 58 59 4 2 14 33 26 63 70 80 99 106 120 116 106 105 104 98 95 97 95 92 93 90 83 80 82 81 76 73 68 61 53 45 31
88 58 35 39 31 29 10 30 33 32 51 46 51 43 24 22 30 59 70 57 9 28 47 57 87 105 98 93 85 86 95 104 108 107 101 103 102 96 93 93 92 89 83 81 78 73 71 65 57 48 38 22 11 3
80 15 23 7 18 22 29 21 7 23 52 13 66 42 1 17 64 58 78 23 23 42 59 73 84 88 90 85 83 86 92 96 98 99 96 92 90 91 88 83 81 80 78 73 68 58 47 36 22 12 1 348 337 330
68 23 43 3 9 36 7 44 25 11 359 52 31 341 35 64 65 52 8 8 18 39 61 74 79 80 80 83 85 87 86 86 87 96 93 89 86 80 72 62 57 51 42 29 20 3 349 339 333 328 325 322 318 314
51 343 28 25 20 32 58 53 36 45 46 24 351 346 29 65 70 313 110 49 41 49 69 77 77 77 78 77 78 84 87 89 90 84 78 62 41 24 16 7 357 349 339 333 327 324 323 320 317 318 319 320 320 317
56 37 34 355 43 36 68 44 29 23 12 345 320 30 59 37 104 156 144 110 73 69 77 88 85 75 65 61 60 55 55 12 336 330 330 328 326 326 328 334 330 329 325 321 320 318 317 318 318 316 315 316 315 313
28 356 42 18 44 55 43 31 3 331 328 348 40 77 99 75 133 137 141 127 85 68 51 48 51 54 49 36 21 1 341 325 328 326 322 323 319 319 318 318 316 314 313 311 311 312 311 311 313 312 313 313 313 312
15 21 73 37 45 51 14 38 29 58 70 78 89 101 86 93 97 122 137 127 99 66 38 34 31 26 16 14 3 346 334 325 321 317 318 315 310 305 302 302 303 304 306 308 306 303 302 303 304 302 301 303 305 306
33 31 51 43 70 34 13 31 53 63 69 70 82 87 95 98 80 61 68 87 79 43 29 30 25 10 359 349 343 338 331 317 313 310 309 310 309 309 308 308 307 307 309 311 311 311 310 309 309 309 309 309 310 308
32 42 64 66 29 13 9 21 29 50 37 41 35 32 43 43 64 47 18 26 18 355 1 351 342 339 336 328 326 322 312 317 319 319 318 317 317 314 312 311 309 308 308 307 306 306 307 308 309 310 310 311 312 311
46 37 49 48 26 17 3 6 33 26 45 38 33 25 25 14 338 360 351 349 355 337 325 328 325 325 324 323 325 320 317 320 319 317 317 317 317 316 314 311 308 306 305 305 305 305 306 306 306 308 308 309 309 308
Wind_Speed_850mb
71 66 66 62 60 64 64 60 59 56 56 52 54 54 58 54 51 46 51 50 47 13 22 28 29 30 27 13 15 5 6 9 7 15 10 7 7 9 10 8 14 22 16 12 13 16 22 20 9 24 12 6 4 6
67 61 63 61 63 65 64 60 56 56 56 55 53 57 58 58 55 50 54 51 45 42 24 20 34 59 64 55 38 29 17 8 22 8 10 6 7 5 6 2 3 5 7 6 12 9 3 49 5 41 10 8 14 19
65 61 58 58 59 60 58 57 55 54 51 52 54 58 53 59 58 56 58 53 43 37 41 48 49 61 56 54 55 27 36 37 33 34 7 6 11 7 16 22 10 6 8 7 4 8 12 18 41 29 30 35 22 20
66 56 55 51 47 44 49 55 53 54 51 51 52 59 57 59 59 57 61 58 51 20 8 33 46 37 35 56 69 71 81 58 46 30 17 11 10 6 6 8 15 13 18 11 8 12 20 42 49 47 40 31 31 32
62 54 54 50 49 42 44 49 52 49 50 50 54 59 55 55 58 57 61 60 57 53 6 10 23 41 41 47 51 57 66 75 55 27 15 8 12 6 2 4 7 11 13 14 17 23 12 17 30 49 47 59 47 36
49 46 45 44 43 49 50 48 48 47 49 44 43 42 50 51 50 53 39 63 60 56 18 8 27 48 66 64 65 66 69 76 56 42 20 15 9 15 7 7 12 33 36 40 10 11 26 30 21 20 47 56 50 44
39 42 44 44 45 48 52 50 48 48 46 44 41 40 46 52 53 54 10 11 27 64 23 5 8 30 55 55 52 59 61 36 43 54 38 32 11 15 4 11 13 20 40 53 46 33 21 42 23 25 32 48 45 41
36 37 37 34 32 36 44 43 46 49 49 42 40 41 42 45 47 59 63 17 19 50 21 6 8 3 29 24 18 36 26 32 28 26 20 28 16 14 13 15 55 49 43 34 38 38 34 26 31 36 24 27 37 44
31 31 31 34 34 38 39 37 36 36 37 37 37 37 38 47 54 62 55 57 53 31 5 6 7 7 19 21 16 18 24 9 15 9 8 19 8 10 16 36 49 53 42 50 48 50 47 41 29 26 31 31 34 38
31 24 26 31 33 34 35 31 27 29 31 30 28 21 13 26 46 30 29 21 26 31 29 7 18 7 16 2 3 3 13 8 9 6 11 7 8 14 26 25 18 28 37 27 29 36 43 44 41 37 37 36 36 37
22 28 21 18 32 33 32 26 21 17 17 29 19 15 13 32 38 27 15 15 12 7 16 23 41 7 21 5 6 10 5 5 7 8 10 6 5 7 12 17 17 20 28 28 31 24 26 36 32 38 39 36 35 38
38 32 26 21 20 21 19 19 21 15 11 16 9 14 20 17 14 9 8 2 9 14 9 9 23 51 22 20 7 9 5 2 10 13 7 7 3 12 2 13 16 16 18 21 23 26 26 24 26 34 36 36 37 41
43 37 32 30 26 18 10 13 15 17 9 6 5 7 12 6 6 10 16 7 1 7 9 1 7 30 20 24 6 6 12 9 4 3 8 4 8 20 21 13 14 15 14 14 17 16 15 16 21 29 36 34 36 36
42 35 30 25 22 18 14 3 7 16 10 9 9 9 9 5 3 3 5 3 7 11 26 11 6 7 14 9 7 8 7 7 5 4 8 6 22 28 25 18 13 11 13 15 13 12 13 16 16 18 22 28 31 31
32 25 20 17 15 17 16 13 10 18 10 6 4 8 2 5 20 11 9 7 16 28 17 9 12 14 5 7 8 5 8 9 10 8 5 21 33 30 25 18 13 9 9 9 7 10 11 13 15 16 18 20 21 21
25 19 17 9 13 21 23 10 11 16 7 7 18 5 16 6 6 15 27 14 31 34 14 10 7 7 9 4 6 1 6 8 4 4 19 27 27 26 24 18 13 8 3 2 6 9 11 13 13 14 16 17 18 19
15 12 8 3 12 20 15 9 10 9 10 10 7 20 11 18 11 8 17 20 35 18 4 4 7 6 6 5 6 8 4 5 19 25 19 19 19 19 17 14 10 9 12 14 15 18 21 24 24 24 25 27 26 26
15 11 2 4 9 9 7 7 10 12 12 17 9 9 28 23 9 17 25 31 21 10 11 6 8 15 8 6 4 4 10 21 18 26 22 21 18 18 17 15 15 18 22 24 27 30 30 29 30 34 33 32 30 30
11 11 2 2 1 5 7 9 10 9 11 13 21 17 18 17 32 34 27 11 24 22 13 11 12 7 5 5 4 13 21 19 18 18 18 18 18 19 16 18 21 24 28 32 34 37 36 36 38 35 33 27 29 30
20 11 8 4 10 8 10 11 10 13 5 8 12 12 10 12 18 25 42 38 30 15 15 10 5 7 7 12 14 17 14 14 10 7 14 17 16 15 22 23 24 27 32 34 35 35 35 37 35 31 27 25 22 25
6 9 3 11 17 18 14 9 12 10 13 13 12 8 10 16 22 24 27 25 24 15 5 13 20 18 11 10 9 7 5 5 3 3 4 12 15 20 24 25 24 28 34 35 35 34 32 34 32 28 22 21 21 19
7 13 15 14 12 11 14 16 10 8 10 12 9 10 12 7 11 20 14 29 13 12 11 17 20 18 12 10 10 7 5 5 9 13 14 17 23 27 29 30 29 35 35 35 33 33 31 28 26 23 19 19 17 15
17 11 15 16 11 14 8 12 10 12 7 5 7 8 6 7 10 11 12 13 10 19 15 13 9 7 9 11 10 11 13 13 19 22 24 26 27 28 27 27 27 29 32 33 29 26 26 23 21 18 17 15 13 12
14 15 19 16 26 7 9 15 13 11 9 7 6 6 6 9 8 12 7 7 16 18 18 16 9 14 20 23 26 24 22 23 26 28 26 25 29 29 25 26 25 26 28 25 22 21 19 18 17 14 14 13 14 15
13 25 18 15 22 13 13 9 11 8 7 8 6 6 5 9 5 6 4 4 16 21 21 21 23 23 27 29 25 24 21 23 26 31 30 26 25 23 22 21 20 21 20 16 16 16 15 14 13 14 14 15 16 18
17 21 13 11 13 9 8 7 9 9 7 6 7 9 6 5 7 4 1 4 8 13 15 18 18 18 22 23 23 23 23 21 18 19 22 18 15 13 13 12 13 14 12 12 12 11 12 14 17 19 21 25 29 32
13 8 13 19 9 7 8 10 10 8 9 9 6 9 4 8 5 1 2 5 5 8 9 11 11 12 14 12 12 12 13 12 10 11 10 9 8 9 10 10 11 12 14 15 16 19 21 23 26 27 28 28 33 38
13 18 10 21 15 20 6 7 8 9 6 13 5 10 5 5 3 3 3 7 11 13 11 9 8 8 8 7 6 6 3 1 3 5 7 10 12 14 13 16 17 18 19 21 22 23 26 28 31 34 34 35 38 40
13 18 7 11 9 13 14 7 7 7 11 5 2 3 3 3 8 11 13 9 8 12 12 10 7 6 7 7 7 6 5 6 8 9 11 13 14 14 18 22 23 24 24 24 27 30 31 34 37 44 47 49 50 52
21 25 8 11 8 10 14 12 15 20 18 14 11 14 12 13 11 8 6 4 5 6 6 5 7 9 9 8 8 9 10 11 12 15 17 17 18 20 22 24 26 28 31 31 31 31 33 38 40 41 46 50 52 54
13 16 12 16 8 7 12 12 15 20 22 23 24 21 12 9 15 19 11 6 5 6 6 6 7 9 10 10 12 12 9 9 13 17 19 21 23 24 26 26 28 31 32 34 36 38 41 42 43 45 44 45 43 46
16 14 5 5 1 8 11 8 8 7 9 8 11 10 6 5 3 4 10 11 6 5 7 7 9 10 11 10 11 12 12 15 18 21 23 24 24 26 28 29 31 34 36 37 37 38 40 42 44 45 47 48 48 49
7 10 10 5 5 7 16 13 12 6 8 7 10 11 8 4 1 6 11 8 10 8 8 11 12 14 16 16 18 18 19 21 23 25 28 29 30 30 30 28 30 32 34 36 36 38 40 43 47 49 51 55 57 58
Wind_Direction_850mb
245 247 247 245 248 248 247 243 238 237 239 242 245 241 235 233 230 231 237 239 241 239 247 240 234 240 244 258 239 318 189 208 187 226 223 220 270 224 178 177 177 183 180 205 215 231 236 156 93 170 206 145 147 199
243 243 243 243 246 245 243 242 237 237 237 238 242 246 238 232 229 226 236 239 244 243 253 249 264 248 249 260 250 248 267 287 221 202 211 190 254 199 336 34 129 244 205 204 208 215 281 186 155 207 195 222 262 234
244 239 238 245 245 239 236 235 233 233 237 240 240 244 242 232 228 224 230 233 234 243 259 258 247 250 247 244 253 236 253 254 258 262 250 225 230 175 251 250 194 224 202 211 45 315 257 224 228 242 250 264 260 221
239 232 235 238 240 240 238 235 231 232 236 240 243 244 242 231 228 223 225 229 228 229 242 260 258 246 250 246 250 245 252 247 254 281 246 236 235 214 228 261 227 204 149 179 260 265 292 272 252 251 237 224 220 209
233 226 232 233 233 238 244 239 234 230 237 242 239 241 236 231 227 225 227 230 232 215 237 244 257 239 241 251 252 250 245 242 246 253 256 260 178 167 95 34 271 190 182 198 240 204 191 263 267 239 218 226 222 215
222 225 229 230 233 240 240 234 227 232 239 236 236 230 227 226 222 226 234 228 226 230 241 248 270 265 265 266 254 254 246 237 234 238 243 226 248 175 165 220 229 223 227 230 222 234 229 264 266 244 226 228 225 223
217 226 226 227 232 234 232 225 222 230 236 228 232 233 227 223 220 218 201 216 214 221 220 259 273 243 242 244 241 240 239 228 228 234 232 240 226 189 202 232 247 241 235 242 250 245 238 234 237 239 226 226 226 225
222 220 220 223 230 226 223 216 224 229 230 225 230 231 229 224 225 230 223 212 194 187 200 221 260 276 211 206 220 212 206 216 226 235 214 214 208 190 239 238 261 247 244 239 240 231 241 246 242 237 236 221 217 219
213 211 220 228 226 227 216 218 221 218 219 219 222 224 228 224 224 227 229 224 228 219 246 200 166 252 184 217 215 205 201 199 214 220 219 171 160 198 209 227 234 225 219 237 248 230 233 239 245 241 231 230 226 221
200 217 233 213 202 195 199 193 191 204 207 216 219 209 215 215 224 210 211 213 209 211 213 215 198 218 170 157 257 236 216 212 207 222 138 210 231 232 215 219 215 206 215 218 212 221 227 234 235 236 238 236 232 221
173 177 159 163 187 147 133 149 167 181 191 192 191 201 205 175 166 182 192 180 187 203 214 222 210 189 211 141 198 228 234 211 207 217 189 202 231 152 191 211 221 221 222 224 223 228 230 234 236 225 216 209 202 197
136 126 121 132 128 119 144 181 208 201 183 174 156 187 201 178 176 174 191 218 207 197 191 176 201 198 192 191 176 191 273 226 237 147 148 202 211 15 272 219 231 242 238 222 218 220 222 223 214 207 205 200 192 188
123 122 117 108 104 101 120 175 194 215 181 151 175 244 181 220 204 198 176 261 229 338 11 236 180 164 163 191 213 182 196 216 92 223 195 185 32 350 344 306 261 255 262 249 232 212 205 210 209 208 203 197 195 192
119 118 110 99 87 69 49 43 219 213 179 185 194 245 193 191 234 133 150 205 15 351 334 309 202 161 179 183 202 214 194 108 193 250 245 2 358 337 340 332 309 271 260 243 226 209 192 191 184 179 181 191 196 202
129 123 108 86 63 28 356 312 290 177 180 214 196 224 120 91 62 53 33 126 359 339 331 286 238 178 179 211 198 185 184 200 190 216 356 344 335 336 330 345 337 327 291 279 240 216 204 202 189 190 191 190 191 193
142 135 91 76 30 5 350 329 158 153 129 64 35 22 359 79 24 24 12 7 350 339 313 250 270 209 198 224 160 76 210 207 61 327 330 336 341 344 349 357 0 1 330 194 181 175 175 181 179 181 180 181 182 183
144 123 114 14 358 353 358 129 133 73 67 57 44 39 56 64 58 40 8 346 346 329 6 325 298 34 333 84 66 11 40 345 321 336 344 348 354 1 21 30 50 78 90 100 115 123 132 132 135 136 139 132 136 137
131 134 200 316 341 355 88 70 76 69 69 54 80 47 64 60 51 23 9 8 8 16 20 54 17 38 42 51 54 350 353 338 360 7 4 10 22 32 42 56 78 88 97 103 107 109 111 115 118 111 113 112 116 114
154 175 82 306 277 120 83 54 46 88 75 94 98 73 76 78 48 40 37 59 58 67 82 46 53 50 43 15 352 329 341 351 343 3 29 38 44 62 81 84 91 102 105 103 106 105 104 106 103 101 99 105 107 102
128 86 89 15 157 104 82 51 59 83 86 96 82 64 69 65 36 31 41 54 63 53 46 43 32 344 323 308 314 310 322 340 346 9 44 51 64 84 86 95 95 99 100 99 99 100 102 101 98 95 95 93 95 94
292 356 51 130 82 67 79 57 65 75 108 83 106 64 73 41 33 25 25 29 57 35 54 30 5 358 343 334 349 350 13 39 57 106 96 76 81 92 94 94 99 101 98 97 95 93 91 87 88 87 85 86 81 80
130 124 103 78 73 70 71 46 73 81 76 101 67 57 52 39 22 18 29 46 60 26 4 351 5 10 17 44 49 53 62 101 113 114 112 111 104 99 97 97 100 94 93 88 88 86 85 80 80 79 76 72 66 61
107 88 59 41 80 51 18 27 62 32 65 46 53 43 36 46 31 23 71 58 59 4 2 14 33 26 63 70 80 99 106 120 116 106 105 104 98 95 97 95 92 93 90 83 80 82 81 76 73 68 61 53 45 31
88 58 35 39 31 29 10 30 33 32 51 46 51 43 24 22 30 59 70 57 9 28 47 57 87 105 98 93 85 86 95 104 108 107 101 103 102 96 93 93 92 89 83 81 78 73 71 65 57 48 38 22 11 3
80 15 23 7 18 22 29 21 7 23 52 13 66 42 1 17 64 58 78 23 23 42 59 73 84 88 90 85 83 86 92 96 98 99 96 92 90 91 88 83 81 80 78 73 68 58 47 36 22 12 1 348 337 330
68 23 43 3 9 36 7 44 25 11 359 52 31 341 35 64 65 52 8 8 18 39 61 74 79 80 80 83 85 87 86 86 87 96 93 89 86 80 72 62 57 51 42 29 20 3 349 339 333 328 325 322 318 314
51 343 28 25 20 32 58 53 36 45 46 24 351 346 29 65 70 313 110 49 41 49 69 77 77 77 78 77 78 84 87 89 90 84 78 62 41 24 16 7 357 349 339 333 327 324 323 320 317 318 319 320 320 317
56 37 34 355 43 36 68 44 29 23 12 345 320 30 59 37 104 156 144 110 73 69 77 88 85 75 65 61 60 55 55 12 336 330 330 328 326 326 328 334 330 329 325 321 320 318 317 318 318 316 315 316 315 313
28 356 42 18 44 55 43 31 3 331 328 348 40 77 99 75 133 137 141 127 85 68 51 48 51 54 49 36 21 1 341 325 328 326 322 323 319 319 318 318 316 314 313 311 311 312 311 311 313 312 313 313 313 312
15 21 73 37 45 51 14 38 29 58 70 78 89 101 86 93 97 122 137 127 99 66 38 34 31 26 16 14 3 346 334 325 321 317 318 315 310 305 302 302 303 304 306 308 306 303 302 303 304 302 301 303 305 306
33 31 51 43 70 34 13 31 53 63 69 70 82 87 95 98 80 61 68 87 79 43 29 30 25 10 359 349 343 338 331 317 313 310 309 310 309 309 308 308 307 307 309 311 311 311 310 309 309 309 309 309 310 308
32 42 64 66 29 13 9 21 29 50 37 41 35 32 43 43 64 47 18 26 18 355 1 351 342 339 336 328 326 322 312 317 319 319 318 317 317 314 312 311 309 308 308 307 306 306 307 308 309 310 310 311 312 311
46 37 49 48 26 17 3 6 33 26 45 38 33 25 25 14 338 360 351 349 355 337 325 328 325 325 324 323 325 320 317 320 319 317 317 317 317 316 314 311 308 306 305 305 305 305 306 306 306 308 308 309 309 308